Location: Bourg-d�Oueil
(42.8588°N, 0.4991°E)
Time: 00:18:56
(UTC+00:00)

DNEPR-1 R/B - Pass Details

Date: 16 June 2021
Orbit: 588 x 1333 km, 64.6° (Epoch: 04 August)

Event Time Altitude Azimuth Distance (km) Brightness Sun altitude
Rises 22:43:48 0° 323° (NW) 2,827 8.2 -21.5°
Reaches altitude 10° 22:46:00 10° 321° (NW) 1,923 7.1 -21.7°
Maximum altitude 22:50:12 67° 239° (WSW) 662 3.5 -21.9°
Enters shadow 22:50:38 62° 202° (SSW) 689 3.5 -21.9°
